This is the latest recevied weather packets stored in our database for station/object KH6HHG. If no packets are shown the sender has not sent any weather packets the latest 10 day(s).
| Time | Temp. | Humidity | Pressure | Rain* | Wind** | Luminosity | Snow |
|---|---|---|---|---|---|---|---|
| 1777926399 | 24.44° C | 79% | 1014.8 hPa | 0 mm | - | - | - |
| 1777926098 | 24.44° C | 80% | 1014.7 hPa | 0 mm | - | - | - |
| 1777925798 | 24.44° C | 80% | 1014.8 hPa | 0 mm | - | - | - |
| 1777925498 | 24.44° C | 79% | 1014.8 hPa | 0 mm | - | - | - |
| 1777925198 | 24.44° C | 77% | 1014.8 hPa | 0 mm | - | - | - |
| 1777924898 | 24.44° C | 76% | 1014.8 hPa | 0 mm | - | - | - |
| 1777924598 | 25° C | 77% | 1014.7 hPa | 0 mm | - | - | - |
| 1777924298 | 25° C | 75% | 1014.8 hPa | 0 mm | - | - | - |
| 1777923998 | 25° C | 74% | 1014.8 hPa | 0 mm | - | - | - |
| 1777923698 | 25° C | 74% | 1014.8 hPa | 0 mm | - | - | - |
| 1777923398 | 25° C | 74% | 1014.8 hPa | 0 mm | - | - | - |
| 1777923098 | 25° C | 73% | 1014.8 hPa | 0 mm | - | - | - |
| 1777922798 | 25° C | 74% | 1014.9 hPa | 0 mm | - | - | - |
| 1777922498 | 24.44° C | 76% | 1014.8 hPa | 0 mm | - | - | - |
| 1777922198 | 24.44° C | 77% | 1015 hPa | 0 mm | - | - | - |
| 1777921898 | 24.44° C | 76% | 1015.1 hPa | 0 mm | - | - | - |
| 1777921598 | 23.89° C | 76% | 1015 hPa | 0 mm | - | - | - |
| 1777921298 | 23.89° C | 76% | 1015 hPa | 0 mm | - | - | - |
| 1777920998 | 23.89° C | 77% | 1014.9 hPa | 0 mm | - | - | - |
| 1777920698 | 23.89° C | 77% | 1015 hPa | 0 mm | - | - | - |
| 1777920398 | 23.89° C | 78% | 1015 hPa | 0 mm | - | - | - |
| 1777920098 | 23.33° C | 79% | 1015 hPa | 0 mm | - | - | - |
| 1777919798 | 22.78° C | 80% | 1014.9 hPa | 0 mm | - | - | - |
| 1777919498 | 22.78° C | 82% | 1015.1 hPa | 0 mm | - | - | - |
| 1777919200 | 22.22° C | 82% | 1015.1 hPa | 0 mm | - | - | - |
* Rain latest hour (hover to see other rain measurements)
** Current wind speed in m/s (hover to see current wind gust speed)